When you browse on this site, cookies collect data to enhance your experience and personalize the content and advertising you see.
Visit our Privacy Policy to learn more. By continuing to use the site, you agree to this use of cookies and data.
  • In Hungary
  • List of Countries
  • For 7 days
  • Water Temperature
  • Weather Map
  • News
  • Weather Widgets
  • user-avatar
    Login

    Hourly Weather Kolesniki

    Today, 23 January, Thursday

    Time Temperature Precipitation Wind Pressure Humidity
    00:00 -6°C° 0.2 mm 6 mps 733 mmHg 87%
    01:00 -8°C° 0.2 mm 6 mps 734 mmHg 85%
    02:00 -8°C° 0.2 mm 7 mps 735 mmHg 83%
    03:00 -9°C° 0.1 mm 6 mps 735 mmHg 80%
    04:00 -9°C° 0.1 mm 6 mps 735 mmHg 76%
    05:00 -10°C° 0.1 mm 6 mps 736 mmHg 73%
    06:00 -10°C° 0 mm 6 mps 736 mmHg 73%
    07:00 -10°C° 0 mm 6 mps 737 mmHg 73%
    08:00 -10°C° 0 mm 6 mps 738 mmHg 73%
    09:00 -10°C° 0 mm 6 mps 738 mmHg 72%
    10:00 -10°C° 0 mm 6 mps 738 mmHg 71%
    11:00 -10°C° 0 mm 6 mps 738 mmHg 70%
    12:00 -10°C° 0 mm 6 mps 739 mmHg 68%
    13:00 -9°C° 0 mm 6 mps 739 mmHg 66%
    14:00 -9°C° 0 mm 6 mps 740 mmHg 65%
    15:00 -9°C° 0 mm 6 mps 740 mmHg 66%
    16:00 -10°C° 0 mm 5 mps 740 mmHg 67%
    17:00 -9°C° 0 mm 4 mps 740 mmHg 67%
    18:00 -9°C° 0 mm 4 mps 741 mmHg 69%
    19:00 -9°C° 0 mm 4 mps 741 mmHg 71%
    20:00 -9°C° 0 mm 4 mps 741 mmHg 73%
    21:00 -8°C° 0 mm 3 mps 741 mmHg 78%
    22:00 -8°C° 0 mm 3 mps 741 mmHg 83%
    23:00 -8°C° 0 mm 3 mps 741 mmHg 87%

    Tomorrow, 24 January, Friday

    Time Temperature Precipitation Wind Pressure Humidity
    00:00 -8°C° 0 mm 3 mps 740 mmHg 87%
    01:00 -7°C° 0 mm 3 mps 740 mmHg 86%
    02:00 -7°C° 0 mm 3 mps 740 mmHg 85%
    03:00 -8°C° 0.1 mm 4 mps 739 mmHg 88%
    04:00 -7°C° 0.1 mm 4 mps 738 mmHg 91%
    05:00 -7°C° 0.1 mm 5 mps 737 mmHg 94%
    06:00 -6°C° 0.4 mm 6 mps 736 mmHg 94%
    07:00 -6°C° 0.4 mm 6 mps 735 mmHg 94%
    08:00 -5°C° 0.4 mm 6 mps 735 mmHg 95%
    09:00 -5°C° 0.4 mm 6 mps 734 mmHg 95%
    10:00 -4°C° 0.4 mm 6 mps 733 mmHg 94%
    11:00 -3°C° 0.4 mm 6 mps 732 mmHg 94%
    12:00 -3°C° 0.1 mm 6 mps 732 mmHg 95%
    13:00 -1°C° 0.1 mm 5 mps 731 mmHg 96%
    14:00 -1°C° 0.1 mm 5 mps 731 mmHg 97%
    15:00 -1°C° 0.2 mm 5 mps 730 mmHg 97%
    16:00 -1°C° 0.2 mm 5 mps 730 mmHg 96%
    17:00 -1°C° 0.2 mm 5 mps 729 mmHg 96%
    18:00 -1°C° 0 mm 5 mps 730 mmHg 93%
    19:00 -2°C° 0 mm 5 mps 730 mmHg 90%
    20:00 -2°C° 0 mm 5 mps 731 mmHg 87%
    21:00 -4°C° 0 mm 5 mps 731 mmHg 88%
    22:00 -4°C° 0 mm 5 mps 731 mmHg 89%
    23:00 -5°C° 0 mm 5 mps 731 mmHg 91%

    Day after tomorrow, 25 January, Saturday

    Time Temperature Precipitation Wind Pressure Humidity
    00:00 -5°C° 0 mm 5 mps 731 mmHg 89%
    01:00 -4°C° 0 mm 5 mps 731 mmHg 88%
    02:00 -4°C° 0 mm 6 mps 731 mmHg 86%
    03:00 -4°C° 0 mm 6 mps 730 mmHg 86%
    04:00 -4°C° 0 mm 6 mps 730 mmHg 85%
    05:00 -4°C° 0 mm 5 mps 730 mmHg 84%
    06:00 -4°C° 0 mm 6 mps 729 mmHg 84%
    07:00 -4°C° 0 mm 6 mps 729 mmHg 85%
    08:00 -4°C° 0 mm 6 mps 729 mmHg 85%
    09:00 -4°C° 0.1 mm 6 mps 729 mmHg 81%
    10:00 -4°C° 0.1 mm 7 mps 728 mmHg 76%
    11:00 -3°C° 0.1 mm 7 mps 728 mmHg 72%
    12:00 -4°C° 0 mm 7 mps 728 mmHg 72%
    13:00 -4°C° 0 mm 6 mps 728 mmHg 72%
    14:00 -4°C° 0 mm 6 mps 728 mmHg 71%
    15:00 -5°C° 0 mm 6 mps 728 mmHg 74%
    16:00 -5°C° 0 mm 5 mps 729 mmHg 77%
    17:00 -6°C° 0 mm 5 mps 729 mmHg 80%
    18:00 -6°C° 0 mm 5 mps 730 mmHg 81%
    19:00 -6°C° 0 mm 6 mps 730 mmHg 82%
    20:00 -6°C° 0 mm 6 mps 731 mmHg 83%
    21:00 -6°C° 0.1 mm 6 mps 731 mmHg 85%
    22:00 -7°C° 0.1 mm 7 mps 732 mmHg 87%
    23:00 -7°C° 0.1 mm 7 mps 732 mmHg 89%

    26 January, Sunday

    Time Temperature Precipitation Wind Pressure Humidity
    00:00 -7°C° 0.1 mm 7 mps 733 mmHg 88%
    01:00 -7°C° 0.1 mm 7 mps 734 mmHg 87%
    02:00 -6°C° 0.1 mm 6 mps 735 mmHg 86%
    03:00 -8°C° 0 mm 6 mps 736 mmHg 86%
    04:00 -8°C° 0 mm 6 mps 737 mmHg 87%
    05:00 -7°C° 0 mm 5 mps 738 mmHg 88%
    06:00 -8°C° 0.1 mm 5 mps 739 mmHg 87%
    07:00 -8°C° 0.1 mm 5 mps 740 mmHg 86%
    08:00 -8°C° 0.1 mm 4 mps 741 mmHg 86%
    09:00 -8°C° 0 mm 4 mps 741 mmHg 85%
    10:00 -8°C° 0 mm 4 mps 742 mmHg 83%
    11:00 -8°C° 0 mm 4 mps 743 mmHg 82%
    12:00 -8°C° 0 mm 4 mps 744 mmHg 83%
    13:00 -7°C° 0 mm 4 mps 744 mmHg 83%
    14:00 -6°C° 0 mm 3 mps 744 mmHg 84%
    15:00 -6°C° 0 mm 3 mps 744 mmHg 85%
    16:00 -7°C° 0 mm 3 mps 745 mmHg 87%
    17:00 -7°C° 0 mm 3 mps 745 mmHg 88%
    18:00 -7°C° 0 mm 3 mps 745 mmHg 89%
    19:00 -7°C° 0 mm 3 mps 745 mmHg 89%
    20:00 -7°C° 0 mm 3 mps 745 mmHg 89%
    21:00 -7°C° 0 mm 3 mps 745 mmHg 90%
    22:00 -7°C° 0 mm 3 mps 745 mmHg 90%
    23:00 -7°C° 0 mm 2 mps 745 mmHg 91%

    27 January, Monday

    Time Temperature Precipitation Wind Pressure Humidity
    00:00 -6°C° 0 mm 2 mps 745 mmHg 91%
    01:00 -6°C° 0 mm 2 mps 745 mmHg 90%
    02:00 -6°C° 0 mm 2 mps 745 mmHg 90%
    03:00 -6°C° 0.2 mm 2 mps 745 mmHg 92%
    04:00 -3°C° 0.2 mm 1 mps 744 mmHg 94%
    05:00 -3°C° 0.2 mm 1 mps 744 mmHg 96%
    06:00 -5°C° 0.4 mm 2 mps 744 mmHg 96%
    07:00 -5°C° 0.4 mm 2 mps 744 mmHg 96%
    08:00 -6°C° 0.4 mm 3 mps 743 mmHg 96%
    09:00 -5°C° 0.6 mm 3 mps 743 mmHg 96%
    10:00 -4°C° 0.6 mm 3 mps 743 mmHg 97%
    11:00 -2°C° 0.6 mm 3 mps 743 mmHg 97%
    12:00 -2°C° 0.4 mm 3 mps 743 mmHg 97%
    13:00 -1°C° 0.4 mm 3 mps 742 mmHg 97%
    14:00 -1°C° 0.4 mm 3 mps 742 mmHg 97%
    15:00 -1°C° 0.1 mm 3 mps 742 mmHg 97%
    16:00 0°C° 0.1 mm 3 mps 741 mmHg 97%
    17:00 0°C° 0.1 mm 3 mps 741 mmHg 97%
    18:00 0°C° 0.3 mm 3 mps 741 mmHg 97%
    19:00 -1°C° 0.3 mm 3 mps 740 mmHg 98%
    20:00 -1°C° 0.3 mm 3 mps 740 mmHg 98%
    21:00 -1°C° 0.2 mm 3 mps 740 mmHg 98%
    22:00 -1°C° 0.2 mm 3 mps 740 mmHg 98%
    23:00 -1°C° 0.2 mm 3 mps 739 mmHg 98%

    28 January, Tuesday

    Time Temperature Precipitation Wind Pressure Humidity
    00:00 -1°C° 0.2 mm 2 mps 739 mmHg 98%
    01:00 -1°C° 0.2 mm 2 mps 739 mmHg 98%
    02:00 -1°C° 0.2 mm 2 mps 738 mmHg 98%
    03:00 -1°C° 0.2 mm 2 mps 738 mmHg 98%
    04:00 -1°C° 0.2 mm 2 mps 738 mmHg 98%
    05:00 -1°C° 0.2 mm 2 mps 738 mmHg 98%
    06:00 +1°C° 0.1 mm 1 mps 738 mmHg 98%
    07:00 0°C° 0.1 mm 1 mps 738 mmHg 98%
    08:00 0°C° 0.1 mm 1 mps 737 mmHg 98%
    09:00 +1°C° 0.1 mm 1 mps 738 mmHg 98%
    10:00 +1°C° 0.1 mm 1 mps 738 mmHg 98%
    11:00 +1°C° 0.1 mm 1 mps 738 mmHg 98%
    12:00 +1°C° 0 mm 1 mps 739 mmHg 98%
    13:00 +1°C° 0 mm 1 mps 739 mmHg 98%
    14:00 +1°C° 0 mm 1 mps 739 mmHg 98%
    15:00 +1°C° 0 mm 1 mps 739 mmHg 97%
    16:00 +1°C° 0 mm 1 mps 740 mmHg 97%
    17:00 +1°C° 0 mm 1 mps 740 mmHg 97%
    18:00 +1°C° 0 mm 1 mps 740 mmHg 97%
    19:00 -2°C° 0 mm 2 mps 741 mmHg 97%
    20:00 -2°C° 0 mm 2 mps 741 mmHg 97%
    21:00 -2°C° 0 mm 2 mps 741 mmHg 97%
    22:00 -2°C° 0 mm 2 mps 741 mmHg 97%
    23:00 -2°C° 0 mm 2 mps 741 mmHg 96%
    Show more